When you browse on this site, cookies collect data to enhance your experience and personalize the content and advertising you see.
Visit our Privacy Policy to learn more. By continuing to use the site, you agree to this use of cookies and data.
  • In Austria
  • List of Countries
  • For 7 days
  • Water Temperature
  • Weather Map
  • News
  • Weather Widgets
  • user-avatar
    Login

    Hourly Weather Nashavar

    Today, 28 May, Thursday

    Time Temperature Precipitation Wind Pressure Humidity
    00:00 +35°C° 0 mm 3 mps 722 mmHg 22%
    01:00 +35°C° 0 mm 3 mps 722 mmHg 23%
    02:00 +34°C° 0 mm 2 mps 722 mmHg 24%
    03:00 +32°C° 0 mm 2 mps 722 mmHg 25%
    04:00 +32°C° 0 mm 2 mps 722 mmHg 26%
    05:00 +31°C° 0 mm 2 mps 722 mmHg 27%
    06:00 +34°C° 0 mm 2 mps 722 mmHg 25%
    07:00 +35°C° 0 mm 2 mps 723 mmHg 23%
    08:00 +36°C° 0 mm 2 mps 723 mmHg 21%
    09:00 +38°C° 0 mm 2 mps 723 mmHg 19%
    10:00 +39°C° 0 mm 2 mps 723 mmHg 17%
    11:00 +41°C° 0 mm 2 mps 723 mmHg 16%
    12:00 +41°C° 0 mm 2 mps 723 mmHg 15%
    13:00 +42°C° 0 mm 2 mps 723 mmHg 14%
    14:00 +43°C° 0 mm 2 mps 722 mmHg 13%
    15:00 +44°C° 0 mm 3 mps 722 mmHg 14%
    16:00 +43°C° 0 mm 4 mps 722 mmHg 14%
    17:00 +43°C° 0 mm 5 mps 722 mmHg 14%
    18:00 +41°C° 0 mm 4 mps 722 mmHg 16%
    19:00 +39°C° 0 mm 3 mps 722 mmHg 19%
    20:00 +38°C° 0 mm 2 mps 722 mmHg 21%
    21:00 +37°C° 0 mm 2 mps 723 mmHg 23%
    22:00 +36°C° 0 mm 2 mps 723 mmHg 25%
    23:00 +35°C° 0 mm 2 mps 723 mmHg 28%

    Tomorrow, 29 May, Friday

    Time Temperature Precipitation Wind Pressure Humidity
    00:00 +34°C° 0 mm 2 mps 723 mmHg 30%
    01:00 +32°C° 0 mm 1 mps 722 mmHg 33%
    02:00 +31°C° 0 mm 1 mps 722 mmHg 35%
    03:00 +31°C° 0.1 mm 1 mps 722 mmHg 36%
    04:00 +30°C° 0.1 mm 1 mps 722 mmHg 37%
    05:00 +28°C° 0.1 mm 0 mps 722 mmHg 38%
    06:00 +31°C° 0 mm 1 mps 723 mmHg 34%
    07:00 +32°C° 0 mm 1 mps 724 mmHg 31%
    08:00 +34°C° 0 mm 1 mps 724 mmHg 28%
    09:00 +35°C° 0 mm 1 mps 724 mmHg 26%
    10:00 +36°C° 0 mm 1 mps 724 mmHg 24%
    11:00 +38°C° 0 mm 2 mps 724 mmHg 23%
    12:00 +39°C° 0 mm 2 mps 724 mmHg 21%
    13:00 +40°C° 0 mm 2 mps 724 mmHg 20%
    14:00 +40°C° 0 mm 2 mps 723 mmHg 19%
    15:00 +40°C° 0 mm 3 mps 723 mmHg 20%
    16:00 +40°C° 0 mm 5 mps 723 mmHg 21%
    17:00 +40°C° 0 mm 6 mps 723 mmHg 22%
    18:00 +37°C° 0 mm 5 mps 723 mmHg 25%
    19:00 +36°C° 0 mm 3 mps 724 mmHg 27%
    20:00 +34°C° 0 mm 2 mps 724 mmHg 30%
    21:00 +34°C° 0 mm 2 mps 724 mmHg 33%
    22:00 +32°C° 0 mm 2 mps 724 mmHg 35%
    23:00 +31°C° 0 mm 1 mps 724 mmHg 38%

    Day after tomorrow, 30 May, Saturday

    Time Temperature Precipitation Wind Pressure Humidity
    00:00 +31°C° 0 mm 1 mps 724 mmHg 38%
    01:00 +31°C° 0 mm 1 mps 724 mmHg 38%
    02:00 +31°C° 0 mm 1 mps 724 mmHg 39%
    03:00 +31°C° 0 mm 1 mps 724 mmHg 40%
    04:00 +30°C° 0 mm 2 mps 724 mmHg 40%
    05:00 +30°C° 0 mm 2 mps 724 mmHg 41%
    06:00 +30°C° 0 mm 2 mps 724 mmHg 39%
    07:00 +31°C° 0 mm 1 mps 725 mmHg 38%
    08:00 +32°C° 0 mm 1 mps 726 mmHg 36%
    09:00 +33°C° 0.1 mm 1 mps 726 mmHg 33%
    10:00 +35°C° 0.1 mm 2 mps 726 mmHg 30%
    11:00 +37°C° 0.1 mm 2 mps 727 mmHg 27%
    12:00 +35°C° 0 mm 2 mps 726 mmHg 32%
    13:00 +36°C° 0 mm 3 mps 726 mmHg 33%
    14:00 +36°C° 0 mm 4 mps 726 mmHg 33%
    15:00 +36°C° 0 mm 4 mps 726 mmHg 33%
    16:00 +36°C° 0 mm 4 mps 725 mmHg 32%
    17:00 +36°C° 0 mm 3 mps 725 mmHg 32%
    18:00 +35°C° 0 mm 3 mps 725 mmHg 33%
    19:00 +34°C° 0 mm 2 mps 726 mmHg 35%
    20:00 +33°C° 0 mm 1 mps 726 mmHg 37%
    21:00 +32°C° 0 mm 1 mps 726 mmHg 38%
    22:00 +32°C° 0 mm 1 mps 727 mmHg 39%
    23:00 +32°C° 0 mm 2 mps 727 mmHg 40%

    31 May, Sunday

    Time Temperature Precipitation Wind Pressure Humidity
    00:00 +31°C° 0 mm 1 mps 726 mmHg 42%
    01:00 +30°C° 0 mm 1 mps 726 mmHg 44%
    02:00 +30°C° 0 mm 1 mps 726 mmHg 46%
    03:00 +30°C° 0 mm 1 mps 726 mmHg 46%
    04:00 +29°C° 0 mm 1 mps 726 mmHg 47%
    05:00 +29°C° 0 mm 1 mps 726 mmHg 48%
    06:00 +29°C° 0.3 mm 1 mps 726 mmHg 47%
    07:00 +30°C° 0.3 mm 1 mps 726 mmHg 45%
    08:00 +31°C° 0.3 mm 1 mps 727 mmHg 44%
    09:00 +32°C° 0 mm 1 mps 727 mmHg 41%
    10:00 +34°C° 0 mm 1 mps 727 mmHg 37%
    11:00 +35°C° 0 mm 1 mps 727 mmHg 34%
    12:00 +37°C° 0 mm 2 mps 727 mmHg 32%
    13:00 +37°C° 0 mm 3 mps 727 mmHg 30%
    14:00 +38°C° 0 mm 4 mps 726 mmHg 29%
    15:00 +39°C° 0.1 mm 5 mps 726 mmHg 30%
    16:00 +38°C° 0.1 mm 6 mps 726 mmHg 31%
    17:00 +38°C° 0.1 mm 7 mps 725 mmHg 32%
    18:00 +36°C° 0.1 mm 6 mps 725 mmHg 36%
    19:00 +34°C° 0.1 mm 6 mps 726 mmHg 39%
    20:00 +33°C° 0.1 mm 5 mps 726 mmHg 43%
    21:00 +33°C° 0 mm 4 mps 726 mmHg 45%
    22:00 +31°C° 0 mm 3 mps 727 mmHg 47%
    23:00 +30°C° 0 mm 2 mps 727 mmHg 49%

    1 June, Monday

    Time Temperature Precipitation Wind Pressure Humidity
    00:00 +30°C° 0 mm 2 mps 727 mmHg 51%
    01:00 +29°C° 0 mm 2 mps 727 mmHg 53%
    02:00 +29°C° 0 mm 2 mps 727 mmHg 55%
    03:00 +28°C° 0.1 mm 2 mps 727 mmHg 57%
    04:00 +28°C° 0.1 mm 2 mps 727 mmHg 60%
    05:00 +27°C° 0.1 mm 1 mps 727 mmHg 62%
    06:00 +28°C° 0 mm 1 mps 727 mmHg 59%
    07:00 +29°C° 0 mm 1 mps 727 mmHg 56%
    08:00 +29°C° 0 mm 1 mps 727 mmHg 53%
    09:00 +31°C° 0 mm 1 mps 727 mmHg 49%
    10:00 +32°C° 0 mm 1 mps 727 mmHg 45%
    11:00 +33°C° 0 mm 1 mps 727 mmHg 42%
    12:00 +34°C° 0 mm 1 mps 727 mmHg 38%
    13:00 +36°C° 0 mm 2 mps 726 mmHg 35%
    14:00 +37°C° 0 mm 2 mps 726 mmHg 32%
    15:00 +38°C° 0 mm 2 mps 726 mmHg 31%
    16:00 +38°C° 0 mm 2 mps 725 mmHg 29%
    17:00 +39°C° 0 mm 2 mps 725 mmHg 28%
    18:00 +38°C° 0 mm 2 mps 725 mmHg 30%
    19:00 +37°C° 0 mm 3 mps 725 mmHg 32%
    20:00 +36°C° 0 mm 3 mps 725 mmHg 34%
    21:00 +35°C° 0 mm 2 mps 725 mmHg 36%
    22:00 +35°C° 0 mm 2 mps 726 mmHg 38%
    23:00 +33°C° 0 mm 1 mps 726 mmHg 41%

    2 June, Tuesday

    Time Temperature Precipitation Wind Pressure Humidity
    00:00 +32°C° 0 mm 1 mps 726 mmHg 42%
    01:00 +32°C° 0 mm 1 mps 725 mmHg 44%
    02:00 +31°C° 0 mm 1 mps 725 mmHg 45%
    03:00 +31°C° 0 mm 1 mps 725 mmHg 47%
    04:00 +30°C° 0 mm 1 mps 725 mmHg 48%
    05:00 +30°C° 0 mm 1 mps 725 mmHg 50%
    06:00 +31°C° 0.1 mm 1 mps 725 mmHg 47%
    07:00 +32°C° 0.1 mm 1 mps 726 mmHg 44%
    08:00 +33°C° 0.1 mm 1 mps 726 mmHg 41%
    09:00 +34°C° 0 mm 1 mps 726 mmHg 37%
    10:00 +35°C° 0 mm 1 mps 726 mmHg 34%
    11:00 +37°C° 0 mm 1 mps 726 mmHg 31%
    12:00 +39°C° 0 mm 1 mps 726 mmHg 28%
    13:00 +40°C° 0 mm 1 mps 725 mmHg 25%
    14:00 +40°C° 0 mm 2 mps 725 mmHg 22%
    15:00 +41°C° 0 mm 2 mps 724 mmHg 21%
    16:00 +41°C° 0 mm 2 mps 724 mmHg 20%
    17:00 +41°C° 0 mm 2 mps 724 mmHg 20%
    18:00 +40°C° 0 mm 3 mps 723 mmHg 22%
    19:00 +39°C° 0 mm 3 mps 723 mmHg 24%
    20:00 +38°C° 0 mm 3 mps 723 mmHg 27%
    21:00 +37°C° 0 mm 2 mps 723 mmHg 29%
    22:00 +35°C° 0 mm 1 mps 723 mmHg 31%
    23:00 +34°C° 0 mm 1 mps 724 mmHg 34%
    Show more